Temperature
17 16 17 17 17 17 17 17 17 17 17 17 17 17 17 17 17 18 18 18 18 18 18 18 18 18 18 18 18 18 18 18 18 18 18 18 18 18 18 18 18 18 18
17 16 17 17 17 17 17 17 17 17 17 17 17 17 17 17 17 17 17 17 17 17 18 18 18 18 18 18 18 18 18 18 18 18 18 18 18 18 18 18 18 18 18
17 16 17 17 17 17 17 17 17 17 17 17 17 17 17 17 17 17 17 17 17 17 17 17 17 18 18 18 18 18 18 18 18 18 18 17 17 18 18 18 18 18 18
17 16 16 17 17 17 17 17 17 17 17 17 17 17 17 17 17 17 17 17 17 17 17 17 17 17 17 17 17 17 18 18 18 17 17 17 17 17 18 18 18 18 18
17 16 16 17 17 17 17 17 17 17 17 17 17 17 17 17 17 17 17 17 17 17 17 17 17 17 17 17 17 17 17 17 17 17 17 17 17 17 17 17 17 17 17
17 16 16 17 17 17 17 17 17 17 17 17 17 17 17 17 17 17 17 17 17 17 17 17 17 17 17 17 17 17 17 17 17 17 17 17 17 17 17 17 17 17 17
17 16 16 17 17 17 17 17 17 16 16 17 16 17 17 17 17 17 17 17 17 17 17 17 17 17 17 17 17 17 17 17 17 16 16 17 17 17 17 17 17 17 17
17 16 16 17 17 17 17 17 16 16 16 16 16 16 16 16 16 16 17 16 16 16 16 16 16 16 16 17 17 17 17 17 16 16 16 16 16 17 17 17 17 17 17
17 17 16 16 16 16 17 16 16 16 16 16 16 16 16 16 16 16 16 16 16 16 16 16 16 16 16 16 16 16 16 16 16 16 16 16 16 16 16 16 16 16 16
17 17 17 16 16 16 16 16 16 16 16 16 16 16 16 16 16 16 16 16 16 16 16 16 16 16 16 16 16 16 16 16 16 16 16 16 16 16 16 16 16 16 16
17 17 17 17 16 16 16 16 16 16 16 16 16 16 16 16 16 16 16 16 16 16 16 16 16 16 16 16 16 16 16 15 15 15 15 16 16 16 16 16 16 16 16
18 17 17 17 17 16 16 16 16 16 16 16 16 16 16 16 16 16 16 16 16 16 16 16 16 16 16 16 16 16 15 15 15 15 15 15 15 15 16 16 16 16 16
18 17 17 17 17 16 16 16 16 16 16 16 16 16 16 16 16 16 16 16 16 16 16 15 15 15 15 15 15 15 15 15 15 15 15 15 15 15 15 15 15 15 15
18 17 17 17 17 17 16 16 16 16 16 16 16 16 16 16 16 15 15 15 15 15 15 15 15 15 15 15 15 15 15 15 15 15 15 15 15 15 15 15 15 15 15
18 17 17 17 17 17 16 16 16 16 16 16 15 16 16 15 15 15 15 15 15 15 15 15 15 15 15 15 15 15 15 15 15 14 15 15 15 15 15 15 15 15 15
18 18 17 17 17 17 16 16 16 16 16 16 15 15 15 15 15 15 15 15 15 15 15 15 15 15 15 15 15 14 14 14 14 14 14 14 15 15 15 15 15 15 15
18 18 17 17 17 17 16 16 16 16 16 16 15 15 15 15 15 15 15 15 15 15 15 15 14 14 14 14 14 14 14 14 14 14 14 14 14 14 14 14 14 14 14
18 18 17 17 17 17 16 16 16 16 16 15 15 15 15 15 15 15 15 15 14 14 14 14 14 14 14 14 14 14 14 14 14 14 14 14 14 14 14 14 14 14 14
18 18 18 17 17 17 16 16 16 16 16 16 15 15 15 15 15 15 15 14 14 14 14 14 14 14 14 14 14 14 14 14 14 13 13 13 13 13 13 14 14 14 14
18 18 18 17 17 17 16 16 16 16 16 15 15 15 15 15 15 15 14 14 14 14 14 14 14 14 14 14 14 14 13 13 13 13 13 13 13 13 13 13 13 13 13
18 18 17 17 17 17 16 16 16 16 16 15 15 15 15 15 14 14 14 14 14 14 14 14 14 14 13 13 14 13 13 13 13 13 13 13 13 13 13 13 13 13 13
18 18 18 17 17 17 16 16 16 16 16 15 15 15 15 14 14 14 14 14 14 14 14 14 14 13 13 13 13 14 14 13 13 13 13 13 13 13 13 12 12 12 13
18 18 17 17 17 17 16 16 16 16 16 15 15 15 15 14 14 14 14 14 14 14 14 14 13 13 13 13 13 13 14 14 13 13 13 13 13 13 13 12 12 12 12
18 17 17 17 17 17 16 16 16 16 16 15 15 15 15 14 14 14 14 14 14 13 13 13 13 13 13 13 13 13 13 13 13 13 13 13 12 12 12 12 12 12 12
17 17 17 17 17 16 16 16 16 16 15 15 15 15 14 14 14 14 14 14 14 13 13 13 13 13 13 13 13 13 13 13 13 13 13 12 12 12 12 12 12 12 11
17 17 17 17 16 16 16 16 16 15 15 15 15 15 14 14 14 14 14 14 13 13 13 13 13 13 13 13 13 13 13 13 13 13 13 12 12 12 12 12 11 12 12
Wind_Speed
3 4 6 5 5 5 6 5 5 5 5 5 5 6 6 5 5 4 5 5 5 5 5 5 5 6 6 5 5 6 6 7 7 6 6 6 5 5 5 4 3 4 7
3 4 5 6 6 6 7 6 6 6 6 6 6 6 6 6 6 6 6 7 6 6 6 6 6 6 6 6 6 7 7 7 7 6 5 6 6 5 5 4 2 5 6
3 4 4 6 6 7 7 7 7 7 7 7 7 7 7 7 6 6 6 7 7 7 6 6 6 7 6 6 7 7 7 7 6 5 3 4 7 7 5 5 5 6 5
4 4 6 6 6 6 7 7 7 7 7 7 7 7 7 7 7 7 7 7 7 7 6 6 7 7 7 7 7 7 7 6 6 3 3 4 5 8 6 5 5 5 5
4 5 7 6 6 7 7 7 8 7 7 7 7 7 7 7 7 7 7 7 7 7 7 6 6 7 7 7 7 7 6 6 4 2 4 4 5 7 6 6 6 5 5
4 5 8 7 7 7 7 8 8 8 8 8 8 8 8 8 8 8 8 7 7 7 7 7 7 7 7 6 6 6 6 4 3 4 4 4 5 7 6 6 5 5 5
5 6 7 8 8 7 7 8 8 9 9 9 9 9 9 8 8 8 7 8 8 8 8 8 8 8 8 7 6 6 5 3 3 3 3 4 6 6 5 5 5 5 5
5 5 6 7 7 8 8 8 8 9 10 10 10 10 10 9 9 9 9 9 9 9 9 8 8 8 8 7 7 7 5 2 3 3 4 5 6 5 5 5 5 5 5
5 5 5 6 7 8 8 9 9 9 10 11 11 11 10 10 10 10 9 9 9 8 8 8 8 8 7 7 7 7 6 4 3 3 4 5 6 5 5 5 5 5 5
4 4 5 5 6 7 9 10 9 10 10 10 10 10 9 9 10 9 10 10 10 10 9 9 9 8 8 8 8 6 3 1 3 4 4 6 7 5 5 5 5 5 5
4 4 4 5 6 6 7 8 8 8 7 6 8 8 5 8 9 9 12 11 11 11 11 10 10 8 7 8 8 5 2 3 4 5 6 7 6 6 6 5 6 6 6
5 4 4 4 5 5 5 5 5 6 6 6 7 7 6 7 8 8 10 11 11 10 9 9 7 5 3 6 6 4 4 5 4 5 7 7 7 6 6 6 6 6 6
4 4 4 4 4 4 4 4 4 4 5 5 6 6 5 6 5 5 5 6 6 6 7 6 4 5 6 6 6 6 6 5 5 6 9 10 8 7 7 6 6 6 6
4 4 4 3 4 4 5 4 4 4 4 4 4 6 5 4 4 5 4 5 5 5 5 5 4 6 7 7 7 7 7 6 5 6 10 12 10 8 8 7 7 7 7
4 4 4 3 3 4 4 3 3 4 4 4 4 4 5 4 4 4 4 5 5 5 5 5 5 6 6 7 7 7 7 8 7 7 8 12 12 11 11 10 9 8 9
3 3 4 3 3 3 3 3 4 4 3 4 4 4 5 4 4 4 5 5 5 5 5 5 6 6 6 6 7 7 7 7 8 8 8 9 12 12 13 12 10 10 10
3 3 4 3 3 3 3 3 3 2 3 3 3 4 5 4 3 4 4 4 4 4 5 5 6 5 6 5 6 7 7 7 7 8 8 7 8 12 13 12 11 10 10
3 4 4 3 3 3 3 2 2 3 3 3 3 3 4 4 4 4 3 4 4 4 4 4 4 5 5 5 5 6 6 6 7 8 8 8 7 7 10 12 12 11 10
3 3 4 4 4 3 3 2 2 2 3 3 3 3 4 4 4 4 3 3 4 3 3 4 4 4 5 5 5 5 5 5 6 7 7 8 8 7 8 10 11 12 11
4 4 4 4 4 4 3 2 3 2 2 3 3 3 4 3 3 3 3 2 3 3 3 3 4 4 4 4 5 5 5 5 5 5 6 6 7 8 8 8 7 10 12
5 5 4 5 5 4 3 3 2 2 2 2 2 3 3 3 3 3 2 2 2 2 3 3 4 4 3 3 3 4 4 4 5 4 4 4 5 6 7 7 7 7 7
5 5 5 5 5 4 3 2 2 2 2 2 2 2 2 2 2 2 2 2 2 2 2 3 2 1 2 1 1 0 1 2 3 3 3 3 4 5 5 6 6 6 6
5 5 4 4 5 5 4 3 3 3 2 2 2 2 2 2 1 1 1 1 1 1 2 1 1 1 1 1 1 1 1 1 1 2 2 2 3 3 3 4 5 5 6
4 4 4 4 4 4 5 4 4 3 2 1 1 1 2 2 2 1 1 1 1 1 2 1 0 0 1 1 1 1 2 1 0 1 1 2 2 2 2 2 3 4 4
4 4 4 4 4 4 4 5 4 3 2 2 1 2 1 1 1 2 1 1 1 1 1 1 1 0 0 0 0 1 1 1 1 0 1 1 1 1 1 1 2 3 3
5 4 4 4 5 4 4 4 4 3 3 3 2 2 1 1 1 1 2 2 2 2 2 2 1 1 1 1 1 0 1 1 1 1 1 1 0 1 1 1 1 1 2
Wind_Direction
19 16 21 9 23 33 39 44 56 61 72 78 77 79 81 82 80 82 92 96 101 98 91 91 95 97 98 93 87 85 101 122 121 120 121 124 124 124 125 130 156 126 99
27 30 37 26 33 38 47 54 56 62 71 76 76 79 75 74 72 75 81 90 92 88 87 87 89 92 93 94 91 88 93 103 109 110 118 118 112 109 110 105 76 85 99
48 43 48 45 43 46 50 53 53 63 69 68 68 71 72 72 67 74 81 87 84 80 80 83 88 90 91 92 92 91 92 99 102 104 127 112 107 100 97 95 96 92 98
56 50 49 47 46 50 53 52 55 64 67 68 67 69 69 70 66 74 81 86 85 84 80 80 84 87 86 87 88 89 91 95 98 116 110 90 96 95 91 92 94 95 96
65 60 58 47 53 55 57 55 56 62 61 67 71 72 72 72 73 76 77 86 94 94 88 82 78 81 83 85 87 89 90 93 102 105 84 81 82 90 89 88 84 89 98
76 67 66 48 55 58 59 61 58 62 61 61 66 69 71 69 72 75 78 82 89 93 90 85 81 78 79 79 83 87 91 96 127 87 80 84 88 92 94 96 93 88 89
73 73 75 57 55 59 63 65 64 63 64 64 65 67 70 66 68 70 73 78 80 82 85 85 81 77 79 78 74 77 83 82 96 87 78 75 75 82 96 99 101 95 87
80 81 87 80 64 61 64 68 68 67 67 67 67 67 68 66 68 71 72 77 80 78 80 83 84 80 80 81 76 72 65 30 93 84 77 76 72 76 88 98 101 96 86
85 83 80 82 89 87 75 69 71 70 68 67 68 68 68 70 72 72 73 75 77 76 78 78 84 83 77 73 71 68 63 42 69 73 76 73 74 72 82 94 101 97 85
94 86 79 79 76 79 84 80 73 71 68 70 71 71 75 84 82 77 78 73 71 71 72 75 77 79 75 72 69 66 60 67 59 67 61 71 76 81 86 90 90 90 86
100 93 91 86 81 79 80 87 87 87 78 89 90 82 79 78 77 77 68 70 69 68 68 70 71 76 85 85 73 65 65 72 72 61 57 63 72 76 81 85 88 89 86
105 96 88 88 86 83 80 87 81 78 75 68 70 70 66 68 70 73 82 76 73 74 77 74 78 92 90 84 84 76 65 64 68 69 63 62 68 72 72 78 85 82 84
102 103 99 94 90 86 87 80 74 70 69 68 66 70 68 74 79 74 81 87 83 81 76 81 80 68 71 67 59 61 53 49 56 60 61 59 60 67 72 78 82 77 73
115 113 109 103 98 90 88 83 77 72 68 65 62 64 67 68 64 68 68 64 64 68 63 59 62 74 73 72 67 63 61 59 61 64 61 54 55 61 64 67 81 77 71
128 129 119 116 102 99 92 87 81 71 62 70 59 59 67 71 68 69 68 62 59 61 62 53 63 77 70 65 62 58 56 57 62 65 69 59 54 57 59 65 69 73 71
150 143 139 139 127 119 112 100 79 71 75 62 66 65 70 77 77 71 68 61 59 57 56 58 64 72 69 66 64 60 55 55 59 63 65 69 64 58 56 58 64 69 69
160 154 146 144 143 135 116 98 87 80 70 70 69 66 73 71 75 73 69 69 69 70 69 63 65 65 70 71 70 63 58 53 56 60 59 57 65 65 57 55 60 66 67
173 163 154 158 160 146 133 122 99 88 78 77 74 64 66 70 67 71 71 73 77 74 72 69 64 67 70 69 67 63 63 62 59 55 56 55 52 54 61 58 57 61 66
189 181 166 160 161 152 145 135 107 91 88 81 78 72 66 69 70 80 73 78 85 78 73 73 70 70 72 70 69 65 63 61 60 57 54 52 55 53 55 64 62 58 61
193 193 177 162 173 155 158 152 127 103 94 88 83 83 72 69 70 82 92 93 92 87 82 84 87 79 76 75 75 68 65 66 63 58 53 52 51 52 51 51 57 65 61
187 191 181 176 173 167 166 165 147 126 111 97 80 77 84 79 76 81 82 80 85 88 94 103 105 106 100 91 90 85 82 73 65 59 55 54 55 51 53 52 49 50 61
180 188 184 182 176 174 174 162 152 129 113 92 98 107 101 95 90 92 100 99 98 91 100 105 121 115 99 77 12 77 107 104 69 60 63 61 54 55 51 49 49 49 47
184 188 184 178 175 178 174 161 147 134 143 140 132 110 103 109 117 118 106 117 112 115 109 123 144 137 122 90 8 341 348 86 88 91 65 66 62 54 50 48 48 51 48
182 182 181 170 172 170 170 172 172 178 175 158 143 132 138 142 143 142 136 145 144 135 142 150 111 242 211 155 92 18 17 73 199 128 105 77 65 56 44 48 47 49 50
167 169 176 169 167 164 174 173 186 186 181 161 165 162 165 142 158 168 169 177 185 174 177 174 178 269 192 217 79 97 84 118 212 189 136 88 73 66 59 41 46 48 47
160 160 166 169 166 166 179 185 190 184 187 179 189 186 185 164 182 187 208 205 203 205 190 201 201 209 238 221 259 193 165 165 173 170 211 188 85 58 79 83 50 58 58
Height
1531 1529 1526 1526 1525 1525 1524 1523 1523 1523 1522 1522 1522 1522 1522 1522 1521 1521 1521 1521 1522 1522 1523 1523 1523 1523 1523 1523 1522 1520 1516 1517 1521 1523 1525 1526 1527 1527 1528 1528 1529 1530 1529
1531 1530 1527 1526 1526 1525 1525 1524 1524 1523 1523 1523 1523 1522 1522 1522 1522 1522 1522 1522 1522 1523 1523 1524 1524 1524 1524 1523 1523 1522 1520 1521 1523 1525 1526 1527 1527 1528 1528 1528 1529 1530 1529
1532 1530 1529 1527 1527 1526 1525 1525 1525 1524 1524 1524 1523 1523 1523 1523 1523 1522 1523 1523 1523 1524 1524 1524 1525 1524 1524 1524 1524 1524 1524 1524 1525 1526 1527 1528 1528 1528 1528 1529 1529 1529 1530
1532 1531 1530 1528 1528 1527 1526 1526 1525 1525 1525 1524 1524 1524 1524 1524 1523 1523 1523 1524 1524 1524 1524 1525 1525 1525 1525 1525 1525 1525 1525 1526 1526 1527 1528 1529 1529 1528 1529 1529 1529 1530 1530
1533 1532 1531 1529 1529 1528 1527 1527 1526 1526 1526 1526 1525 1525 1525 1524 1524 1524 1524 1524 1524 1525 1525 1525 1526 1526 1526 1526 1526 1526 1526 1527 1527 1528 1529 1529 1529 1529 1529 1529 1529 1530 1530
1535 1534 1532 1530 1529 1529 1528 1528 1527 1527 1527 1527 1526 1526 1526 1526 1525 1525 1525 1525 1525 1525 1525 1526 1526 1526 1526 1526 1526 1527 1527 1527 1528 1529 1529 1529 1529 1529 1529 1529 1530 1530 1530
1536 1535 1534 1532 1531 1530 1530 1529 1529 1529 1528 1528 1528 1527 1527 1527 1527 1526 1526 1526 1526 1526 1526 1526 1527 1527 1527 1527 1527 1527 1527 1528 1529 1529 1529 1529 1529 1529 1529 1530 1530 1530 1530
1537 1536 1535 1534 1533 1532 1531 1531 1531 1530 1530 1529 1529 1529 1528 1528 1528 1528 1527 1527 1527 1527 1527 1527 1527 1527 1527 1527 1527 1527 1528 1528 1529 1529 1529 1529 1529 1529 1529 1529 1530 1530 1530
1538 1538 1537 1536 1535 1534 1533 1533 1532 1532 1532 1531 1531 1530 1530 1530 1529 1529 1529 1528 1528 1528 1528 1527 1527 1527 1527 1528 1528 1528 1528 1528 1529 1530 1530 1529 1529 1529 1529 1529 1529 1530 1530
1539 1539 1538 1538 1537 1537 1536 1535 1534 1534 1533 1533 1533 1532 1532 1531 1531 1531 1530 1530 1529 1529 1528 1528 1528 1528 1528 1528 1528 1528 1528 1529 1530 1530 1530 1529 1529 1529 1529 1529 1529 1529 1529
1540 1540 1540 1539 1539 1538 1538 1537 1536 1536 1535 1535 1535 1534 1534 1534 1533 1533 1532 1531 1530 1530 1529 1528 1528 1528 1528 1528 1528 1528 1529 1530 1530 1530 1529 1529 1529 1529 1529 1529 1529 1529 1529
1542 1542 1541 1541 1540 1540 1539 1539 1539 1539 1538 1537 1537 1536 1536 1535 1534 1534 1533 1532 1531 1531 1530 1529 1529 1528 1529 1529 1529 1529 1530 1530 1530 1530 1529 1529 1529 1529 1529 1529 1529 1529 1529
1542 1542 1542 1542 1542 1541 1541 1541 1540 1540 1539 1539 1538 1538 1537 1537 1536 1535 1535 1534 1533 1532 1531 1530 1529 1529 1529 1530 1530 1530 1530 1530 1530 1530 1529 1529 1529 1529 1529 1529 1529 1528 1528
1543 1543 1543 1543 1543 1542 1542 1542 1542 1541 1541 1540 1540 1540 1539 1538 1537 1537 1536 1535 1535 1533 1532 1530 1528 1529 1530 1531 1531 1531 1530 1529 1529 1530 1530 1530 1530 1530 1529 1529 1529 1528 1528
1543 1543 1543 1543 1543 1543 1543 1543 1543 1542 1542 1542 1541 1540 1540 1539 1538 1538 1537 1536 1536 1535 1533 1531 1528 1528 1530 1531 1532 1531 1531 1530 1530 1531 1531 1530 1530 1530 1530 1529 1529 1528 1528
1543 1544 1543 1544 1544 1544 1544 1544 1544 1544 1543 1543 1542 1541 1541 1540 1539 1539 1539 1537 1537 1536 1535 1533 1531 1531 1531 1532 1532 1532 1532 1532 1532 1532 1532 1532 1531 1531 1530 1530 1530 1529 1528
1543 1544 1544 1544 1544 1545 1545 1545 1544 1544 1544 1543 1543 1543 1542 1541 1541 1540 1540 1539 1538 1537 1536 1535 1534 1533 1533 1533 1534 1533 1533 1533 1533 1533 1533 1533 1533 1532 1531 1531 1530 1529 1529
1543 1543 1543 1543 1544 1545 1545 1545 1545 1545 1544 1544 1544 1544 1543 1542 1542 1541 1541 1540 1539 1538 1538 1537 1536 1535 1535 1535 1535 1535 1535 1534 1535 1535 1534 1534 1533 1533 1532 1532 1531 1530 1530
1542 1543 1543 1544 1544 1544 1545 1545 1545 1545 1545 1545 1544 1544 1544 1543 1542 1542 1541 1541 1540 1539 1539 1538 1538 1538 1537 1537 1537 1536 1536 1536 1536 1536 1535 1535 1534 1534 1533 1533 1532 1531 1530
1541 1542 1543 1543 1543 1544 1544 1545 1545 1545 1545 1545 1545 1545 1544 1543 1543 1542 1542 1541 1541 1540 1540 1539 1539 1538 1538 1538 1538 1538 1538 1538 1537 1537 1537 1536 1536 1535 1534 1534 1533 1532 1531
1540 1541 1542 1542 1543 1543 1544 1545 1546 1546 1546 1546 1545 1545 1544 1544 1543 1543 1542 1542 1541 1541 1541 1540 1540 1540 1540 1540 1540 1540 1540 1539 1539 1538 1538 1538 1537 1536 1535 1535 1534 1533 1533
1539 1540 1541 1542 1543 1543 1544 1545 1545 1545 1546 1546 1545 1545 1545 1544 1544 1543 1543 1542 1541 1541 1541 1541 1540 1541 1540 1540 1541 1540 1541 1542 1540 1540 1539 1539 1538 1537 1537 1536 1536 1535 1534
1538 1539 1540 1541 1542 1543 1543 1544 1545 1545 1545 1546 1546 1545 1545 1544 1544 1543 1543 1542 1542 1542 1541 1541 1541 1541 1541 1541 1541 1541 1541 1541 1542 1542 1540 1540 1539 1538 1538 1538 1537 1536 1535
1537 1538 1539 1540 1541 1542 1543 1544 1545 1545 1546 1546 1546 1545 1545 1544 1543 1543 1543 1542 1542 1542 1541 1541 1541 1541 1541 1542 1541 1541 1542 1541 1541 1542 1542 1541 1540 1539 1539 1538 1538 1537 1536
1535 1536 1538 1539 1540 1541 1542 1542 1544 1545 1545 1545 1545 1545 1544 1544 1543 1543 1542 1542 1542 1541 1541 1541 1541 1541 1541 1541 1541 1541 1541 1540 1541 1541 1541 1542 1541 1540 1539 1539 1538 1537 1536
1534 1535 1536 1538 1539 1539 1540 1542 1543 1543 1544 1544 1544 1544 1544 1543 1542 1542 1541 1541 1541 1541 1541 1541 1540 1540 1540 1540 1540 1541 1541 1541 1540 1540 1540 1540 1540 1540 1539 1539 1538 1537 1537